Location: Fours
(44.3167°N, 6.7000°E)
Time: 13:11:02
(UTC+00:00)

ARGOS - Pass Details

Date: 30 November 2020
Orbit: 820 x 835 km, 98.4° (Epoch: 25 January)

Event Time Altitude Azimuth Distance (km) Brightness Sun altitude
Exits shadow 18:27:18 28° 4° (N) 1,522 4.4 -26.5°
Drops below altitude 10° 18:29:50 10° 354° (N) 2,443 5.6 -26.9°
Sets 18:32:13 0° 351° (N) 3,378 6.4 -27.4°
